SCP
1 1 1 1 1 0 0 0 0 1 1 1 1 0 0 0 1 1 1 1 1 0 0 0 0 0 0 0 0 0 0 0 0 0 0 0 0 0 0 0 0 0 0
1 1 1 1 1 0 0 0 0 0 0 0 0 0 0 0 1 1 1 1 0 0 0 0 0 0 0 0 0 0 0 0 0 0 0 0 0 0 0 0 0 0 0
1 1 1 1 1 0 0 0 0 0 0 0 0 0 0 0 1 1 1 1 0 0 0 0 0 0 0 0 0 0 0 0 0 0 0 0 0 0 0 0 0 0 0
1 1 1 1 1 1 1 1 0 0 0 0 0 0 0 1 1 1 0 0 0 0 0 0 0 0 0 0 0 0 0 0 0 0 0 0 0 0 0 0 0 0 0
1 1 1 1 1 1 1 1 1 0 0 0 0 0 1 1 1 0 0 0 0 0 0 0 0 0 0 0 0 0 0 0 0 0 0 0 0 0 0 0 0 0 0
1 1 1 1 1 1 1 0 0 0 0 0 0 0 0 1 0 0 0 0 0 0 0 0 0 0 0 0 0 0 0 0 0 0 0 0 0 0 0 0 0 0 0
1 1 1 1 1 1 1 0 0 0 0 0 0 0 1 1 0 0 0 0 0 0 0 0 0 0 0 0 0 0 0 0 0 0 0 0 0 0 0 0 0 0 0
1 1 1 1 1 1 1 0 0 0 0 0 0 1 1 1 1 0 0 0 0 0 0 0 0 0 0 0 0 0 0 0 0 0 0 0 0 0 0 0 0 0 0
1 1 1 1 1 1 1 1 0 0 0 0 0 1 1 1 0 0 0 0 0 0 0 0 0 0 0 0 0 0 0 0 0 0 0 0 0 0 0 0 0 0 0
1 1 1 1 1 1 1 1 0 0 0 0 0 0 0 0 0 0 0 0 0 0 0 0 0 0 0 0 0 0 0 0 0 0 0 0 0 0 0 0 0 0 0
1 1 1 1 1 1 1 1 1 1 0 0 0 0 0 0 0 0 0 0 0 0 0 0 0 0 0 0 0 0 0 0 0 0 0 0 0 0 0 0 0 0 0
1 1 1 1 1 1 1 1 1 1 1 0 0 0 0 0 0 0 0 0 0 0 0 0 0 0 0 0 0 0 0 0 0 0 0 0 0 0 0 0 0 0 0
1 1 1 1 1 1 1 0 0 1 1 0 0 0 0 0 0 0 0 0 0 0 0 0 0 0 0 0 0 0 0 0 0 0 0 0 0 0 0 0 0 0 0
1 1 1 1 1 0 0 0 0 0 0 0 0 0 0 0 0 0 0 0 0 0 0 0 0 0 0 0 0 0 0 0 0 0 0 0 0 0 0 0 0 0 0
0 0 1 1 1 0 0 0 0 0 0 0 1 1 1 1 1 1 0 0 0 0 0 0 0 0 0 0 0 0 0 0 0 0 0 0 0 0 0 1 1 0 0
0 0 0 1 1 1 1 1 0 0 0 1 1 1 1 1 1 1 1 1 1 1 0 0 0 0 0 0 0 0 0 0 0 0 0 0 1 0 1 1 1 1 1
1 1 1 1 0 1 1 1 1 0 0 1 1 1 1 1 1 1 1 1 1 1 1 0 0 0 0 0 0 0 0 0 0 0 0 0 1 1 1 1 1 1 1
1 1 1 1 1 1 1 1 1 1 1 1 1 1 1 1 1 1 1 1 1 1 1 0 0 0 0 0 0 0 0 0 0 0 0 0 0 0 0 1 1 1 1
2 2 1 1 1 1 1 1 1 1 1 1 1 1 1 1 1 1 1 1 1 1 1 1 0 0 0 0 0 0 0 0 0 0 0 0 0 0 0 1 1 1 1
2 2 2 1 1 1 1 1 1 1 1 1 1 1 1 1 1 1 1 1 1 1 1 0 0 0 0 0 0 0 0 0 0 0 0 0 0 0 0 0 1 1 1
3 2 2 2 2 1 1 1 1 1 1 1 1 1 1 1 1 1 1 1 1 1 0 0 0 0 0 0 0 0 0 0 0 0 0 0 0 0 0 0 1 1 1
3 2 2 2 2 2 2 1 1 1 1 1 1 1 1 1 1 1 1 1 1 1 1 0 0 0 0 0 0 0 0 0 0 0 0 0 0 0 0 1 1 1 1
2 2 2 2 3 3 2 2 2 2 2 1 1 1 1 1 1 1 1 1 1 1 1 0 0 0 1 1 1 1 0 0 0 0 0 0 0 0 0 1 1 1 1
2 2 2 2 2 3 3 2 2 2 2 2 1 1 1 1 1 1 1 1 1 1 1 1 1 1 1 1 1 1 1 0 0 0 0 0 0 0 0 0 1 1 1
2 2 2 2 2 2 2 2 2 2 2 2 1 1 1 1 1 1 1 1 1 1 1 1 1 1 1 1 1 1 1 1 0 0 0 0 0 0 0 0 0 1 1
3 2 2 2 2 2 2 2 2 2 2 2 1 1 1 1 1 1 1 1 1 1 1 1 1 0 0 0 0 0 1 1 1 1 0 0 0 0 0 0 0 0 0
Wind_Speed
2 2 7 10 11 12 13 14 14 14 15 15 15 15 15 15 15 15 15 15 15 15 15 15 15 15 15 15 16 16 16 15 15 15 15 15 15 15 15 16 14 11 15
4 4 9 10 11 12 13 13 13 13 14 14 14 14 14 15 15 15 14 14 15 15 15 15 15 15 15 15 15 16 15 14 14 15 15 14 15 14 15 15 14 10 15
5 4 7 10 11 11 12 12 12 13 13 13 13 13 13 14 14 14 14 14 14 15 15 14 14 15 14 15 15 15 14 14 14 14 14 9 11 14 14 14 14 14 14
6 4 6 10 11 11 11 11 11 12 12 12 12 12 13 13 13 13 13 13 13 14 14 14 14 14 14 14 14 13 13 13 13 13 8 7 8 13 13 14 13 13 13
5 4 6 10 10 10 11 10 10 11 11 11 11 12 12 12 12 12 12 12 12 13 13 13 13 13 13 13 13 12 12 12 13 10 7 6 6 11 13 13 13 12 12
5 4 5 10 10 10 10 10 10 10 10 11 11 10 11 11 11 11 11 12 11 12 12 12 12 12 12 12 12 11 12 12 10 7 6 6 5 10 12 12 12 12 12
5 3 4 9 10 9 9 9 9 9 9 10 10 10 10 10 10 10 10 10 11 11 11 11 11 11 11 11 10 10 10 10 7 6 5 5 5 9 11 11 11 11 11
5 4 4 9 9 9 8 8 8 8 8 9 9 9 9 9 9 9 9 9 9 10 10 10 9 9 9 9 9 9 9 8 7 6 5 4 6 9 10 10 10 10 10
4 3 2 3 5 8 8 7 7 7 8 7 7 8 8 8 8 8 7 8 8 8 8 8 8 8 8 8 7 7 7 8 6 4 5 4 7 8 9 9 10 10 10
3 3 2 2 3 2 3 6 7 6 7 7 7 7 6 6 6 6 5 6 7 7 7 7 7 7 6 6 6 6 6 7 5 4 3 4 7 8 9 9 9 9 9
4 2 2 2 2 2 2 4 4 5 5 5 4 5 5 3 3 3 3 5 5 5 5 5 5 5 4 4 4 4 5 3 4 3 3 5 8 9 9 9 8 8 8
6 4 3 3 3 2 2 2 1 1 2 2 2 2 2 2 1 2 1 2 3 3 3 3 3 3 3 1 2 3 2 3 3 3 3 7 8 9 9 9 9 9 8
6 5 4 4 3 2 1 1 1 1 1 1 1 1 1 1 1 1 1 1 1 1 1 2 2 1 1 1 1 1 2 2 2 2 4 7 8 9 9 9 9 9 9
5 5 5 4 3 3 2 1 1 1 1 1 1 1 1 1 0 0 1 1 1 1 1 1 1 1 0 1 1 1 2 2 2 2 3 8 8 9 10 10 10 10 10
6 6 5 5 5 3 2 2 2 2 2 1 1 2 2 2 1 1 1 1 1 0 0 1 0 1 1 1 1 2 3 3 3 3 3 8 9 10 10 11 11 11 11
7 7 5 5 5 4 3 3 2 2 2 2 2 3 3 3 2 2 2 2 2 2 1 1 2 1 1 1 2 2 3 3 4 4 4 5 10 10 11 12 12 12 12
8 6 6 6 5 5 5 4 3 2 2 2 3 3 4 4 4 3 3 3 3 2 2 1 1 1 2 2 2 3 3 4 4 5 5 4 5 9 12 12 13 13 13
7 7 7 7 6 5 5 4 3 2 2 2 2 3 4 5 5 4 3 4 3 2 2 2 1 1 2 2 2 3 3 3 5 5 5 5 4 5 8 13 13 13 14
9 8 7 6 6 6 5 3 2 2 2 2 2 3 3 4 5 4 4 4 3 2 2 3 2 2 2 3 3 3 3 4 5 5 6 7 6 6 6 8 13 13 15
7 7 6 6 5 5 3 2 1 1 1 2 2 3 3 3 4 4 3 4 3 3 3 3 3 2 2 2 3 3 3 4 4 5 6 6 6 8 7 7 6 8 13
6 6 7 6 5 4 3 2 2 2 2 2 2 3 3 2 3 3 3 3 3 3 4 4 3 3 3 2 1 2 2 3 4 4 5 5 6 7 7 7 6 5 5
7 7 6 6 6 5 3 2 2 2 1 1 1 1 2 2 3 3 3 3 3 3 3 3 3 2 2 2 2 1 2 3 2 3 3 4 6 5 6 7 6 6 6
7 8 7 6 5 5 4 2 1 1 1 0 1 1 2 2 2 2 3 3 3 4 4 4 4 4 3 2 3 3 2 3 2 2 2 3 3 3 4 4 6 7 6
8 6 6 5 5 5 5 4 4 2 2 2 1 1 2 2 2 3 3 4 4 3 4 4 4 4 4 3 2 3 3 2 2 2 2 1 2 2 3 4 4 5 5
7 6 5 5 5 5 5 5 4 3 3 1 1 1 2 2 2 3 3 3 3 3 4 4 3 4 4 4 3 2 3 2 2 2 3 2 1 2 2 3 3 3 4
6 6 6 6 5 5 5 4 5 4 3 1 1 2 2 2 2 3 2 2 2 2 3 4 3 4 3 3 3 2 2 2 3 3 3 3 2 2 2 1 2 2 2
Wind_Direction
125 126 115 106 100 96 94 94 95 96 96 95 96 98 99 99 100 100 101 100 99 99 100 100 102 102 103 103 105 105 105 106 108 109 109 109 109 109 108 107 106 106 109
138 132 121 112 106 102 99 97 97 97 97 97 97 98 98 99 99 100 100 100 101 102 102 102 102 102 103 103 105 106 105 106 108 110 109 109 109 108 109 109 109 111 111
123 120 120 117 111 106 103 101 100 99 99 99 99 100 100 99 99 99 100 100 101 103 103 103 103 103 104 105 106 107 107 106 107 107 105 103 109 110 112 113 113 111 112
122 116 125 123 117 112 107 105 103 102 102 102 101 101 101 100 100 99 99 100 102 103 103 103 104 105 106 106 107 108 109 107 106 103 96 103 111 115 114 114 114 115 114
117 118 134 126 121 116 111 108 107 105 104 104 104 103 103 101 100 99 99 99 101 103 103 103 105 107 108 108 109 109 111 110 107 101 95 94 102 120 119 118 119 120 119
118 123 137 130 125 120 116 112 109 109 107 106 105 103 104 103 102 102 101 101 102 104 104 104 105 107 109 111 112 113 115 113 105 102 101 103 110 124 124 123 124 123 121
125 128 139 136 131 126 121 117 114 111 109 107 107 105 104 105 105 105 105 106 106 106 106 106 106 106 110 112 114 118 121 120 112 111 112 114 122 128 128 127 127 127 125
128 127 136 142 137 132 129 124 120 116 112 111 110 109 109 107 108 107 108 108 108 109 109 109 108 108 112 114 114 119 124 127 122 124 124 126 134 136 135 135 134 134 133
118 116 113 127 134 139 138 134 129 124 120 118 116 114 113 113 113 111 111 113 113 114 113 113 114 113 114 115 114 118 124 125 120 128 137 137 144 145 142 142 142 141 140
118 121 117 106 104 115 137 146 142 137 133 131 128 122 117 111 110 112 111 118 120 119 119 117 116 116 117 118 117 117 122 121 126 138 141 151 157 158 155 151 150 150 150
162 154 141 129 125 126 149 166 153 150 144 134 129 126 104 69 64 83 107 121 122 123 123 118 115 113 115 114 116 118 111 120 137 147 154 168 172 171 168 166 163 161 160
185 186 173 166 160 158 177 128 91 97 98 86 71 85 88 82 62 75 75 121 131 129 125 119 115 102 92 83 95 104 112 138 148 164 180 184 184 182 179 178 177 175 172
188 191 186 186 182 178 165 132 118 92 95 104 117 116 101 84 47 35 25 18 26 63 57 58 59 62 101 127 112 126 155 159 167 183 192 197 196 194 191 189 188 186 185
183 201 194 188 190 195 185 171 163 153 155 182 192 175 148 128 88 27 360 353 8 27 54 36 24 3 1 218 186 188 192 191 186 193 205 205 204 201 201 200 197 197 196
193 204 200 192 196 195 191 205 193 195 197 212 219 206 188 183 200 193 229 233 236 216 204 238 251 263 277 267 227 212 216 208 201 204 211 212 208 208 208 207 207 207 205
199 207 199 198 198 191 198 209 210 205 207 211 220 214 199 199 202 206 223 238 241 230 224 230 233 234 257 258 254 232 226 216 212 211 215 220 217 214 215 215 214 214 214
196 200 197 200 197 197 208 216 219 210 203 219 228 216 206 204 203 203 215 232 237 231 230 237 251 244 248 248 254 244 231 226 223 221 218 219 225 224 222 222 221 221 222
190 194 199 200 194 199 209 216 215 207 202 221 230 221 216 212 207 204 214 229 227 210 206 215 230 243 255 246 247 247 237 235 234 230 226 223 224 231 232 230 228 228 227
192 192 191 193 191 193 202 207 209 207 212 218 219 222 218 215 211 207 218 227 215 207 210 221 208 207 238 245 247 247 243 238 240 239 233 229 226 228 233 240 238 233 232
189 187 188 190 191 182 178 175 188 212 230 224 220 226 222 216 210 206 221 227 212 212 218 217 217 209 220 233 256 262 256 247 242 240 240 236 231 232 231 236 240 243 241
182 182 184 183 184 167 161 173 181 213 221 226 225 225 226 220 208 205 231 232 217 219 222 214 210 217 227 196 197 291 290 255 243 241 238 237 237 234 230 230 230 234 245
188 190 184 185 182 182 182 171 175 178 200 216 234 242 232 223 214 215 218 232 227 225 231 223 209 208 221 184 173 175 307 318 284 246 233 232 238 232 232 232 226 227 233
191 191 191 187 184 184 178 150 117 83 40 18 286 273 267 247 232 229 228 231 230 222 228 226 213 209 221 214 189 174 189 236 291 302 259 241 238 231 237 237 232 230 229
195 182 180 177 181 180 171 169 171 179 215 228 227 252 280 261 243 231 233 232 234 230 231 234 218 212 207 221 212 214 210 182 197 293 312 296 267 247 245 245 245 238 231
180 171 175 174 183 185 181 180 177 195 214 222 245 273 282 284 269 254 245 240 237 235 233 234 224 214 210 212 206 201 210 210 204 217 269 292 305 277 260 252 250 252 246
163 169 175 178 188 177 174 176 181 192 193 204 256 279 286 287 285 280 269 253 246 240 235 230 222 220 221 219 214 201 191 195 200 206 232 256 276 283 286 279 268 260 253